Check out our new BloomSky Weather System.

Active alerts

Houston, TX
  Details for Houston, TX River Flood Warning  +1 additional alert
Fort Bend, TX
  Details for Fort Bend, TX River Flood Warning  +1 additional alert


Thunder radar  blitzortung!


Rain radar more information rain snow radar


Visit our other weather sites:

Template documentation
and downloads

And another site



Weather Underground History page Text

Daily Summary for May 13, 2017 Units:  English    Metric   Both
« Previous Day
Next Day »
Daily Weekly Monthly Yearly Custom
  High: Low: Average:
Temperature: TemperatureF °F 61.3 °F 74.4 °F
Dew Point: DewpointF °F 58.5 °F 62.9 °F
Humidity: Humidity % 46 % 69 %
Wind Speed: WindSpeedMPH mph 0.0 mph 1.5 mph
Wind Gust: WindSpeedGustMPH mph - -
Wind:- - WSW
Pressure: PressureIn in 29.83 in -
Precipitation: 0.00 in    
Historical Graphs
 
 
Tabular Data for May 13, 2017
Time Temperature Dew Point Pressure Wind Wind Speed Wind Gust Humidity Rainfall Rate (Hourly)
TemperatureF °F DewpointF °F PressureIn in Calm     Humidity % HourlyPrecipIn in
00:01 71.1 °F 59.9 °F 29.88 in NW 2.0 mph 5.0 mph 68 % 0.00 in
00:06 70.9 °F 60.3 °F 29.88 in NNW 1.0 mph 4.0 mph 69 % 0.00 in
00:11 70.7 °F 60.1 °F 29.88 in Calm   4.0 mph 69 % 0.00 in
00:16 70.5 °F 60.3 °F 29.88 in NW 1.0 mph 4.0 mph 70 % 0.00 in
00:21 70.3 °F 60.1 °F 29.88 in NNW 2.0 mph 4.0 mph 70 % 0.00 in
00:26 70.3 °F 60.1 °F 29.88 in NW 1.0 mph 3.0 mph 70 % 0.00 in
00:31 70.2 °F 60.3 °F 29.88 in NW 1.0 mph 3.0 mph 71 % 0.00 in
00:36 70.2 °F 60.3 °F 29.89 in NNW 2.0 mph 3.0 mph 71 % 0.00 in
00:41 70.0 °F 60.1 °F 29.89 in NW 1.0 mph 3.0 mph 71 % 0.00 in
00:46 69.8 °F 60.4 °F 29.89 in NNE 1.0 mph 3.0 mph 72 % 0.00 in
00:51 69.6 °F 60.3 °F 29.89 in NW 1.0 mph 3.0 mph 72 % 0.00 in
00:56 69.4 °F 60.1 °F 29.89 in NW 1.0 mph 3.0 mph 72 % 0.00 in
01:01 69.4 °F 60.4 °F 29.89 in NW 1.0 mph 3.0 mph 73 % 0.00 in
01:02 69.4 °F 60.4 °F 29.89 in Calm   3.0 mph 73 % 0.00 in
01:07 69.3 °F 60.3 °F 29.89 in NW 1.0 mph 3.0 mph 73 % 0.00 in
01:12 69.3 °F 60.3 °F 29.89 in NW 1.0 mph 3.0 mph 73 % 0.00 in
01:17 69.1 °F 60.1 °F 29.89 in Calm   3.0 mph 73 % 0.00 in
01:22 68.7 °F 60.1 °F 29.89 in Calm   3.0 mph 74 % 0.00 in
01:27 68.4 °F 59.7 °F 29.89 in Calm   3.0 mph 74 % 0.00 in
01:32 68.0 °F 59.7 °F 29.89 in Calm   2.0 mph 75 % 0.00 in
01:37 67.6 °F 59.4 °F 29.89 in Calm   1.0 mph 75 % 0.00 in
01:42 67.3 °F 59.5 °F 29.88 in Calm   1.0 mph 76 % 0.00 in
01:47 66.9 °F 59.5 °F 29.88 in Calm   1.0 mph 77 % 0.00 in
01:52 66.9 °F 59.9 °F 29.88 in WNW 1.0 mph 1.0 mph 78 % 0.00 in
01:57 66.9 °F 59.9 °F 29.88 in Calm   1.0 mph 78 % 0.00 in
02:02 66.9 °F 59.9 °F 29.88 in Calm   1.0 mph 78 % 0.00 in
02:07 66.9 °F 59.9 °F 29.88 in WNW 1.0 mph 1.0 mph 78 % 0.00 in
02:12 66.9 °F 59.9 °F 29.88 in Calm   1.0 mph 78 % 0.00 in
02:17 66.7 °F 60.1 °F 29.87 in NW 1.0 mph 2.0 mph 79 % 0.00 in
02:22 66.7 °F 60.1 °F 29.87 in Calm   2.0 mph 79 % 0.00 in
02:27 66.6 °F 59.9 °F 29.87 in Calm   2.0 mph 79 % 0.00 in
02:32 66.6 °F 59.9 °F 29.87 in NW 1.0 mph 2.0 mph 79 % 0.00 in
02:37 66.6 °F 59.9 °F 29.87 in Calm   3.0 mph 79 % 0.00 in
02:42 66.4 °F 59.7 °F 29.87 in Calm   3.0 mph 79 % 0.00 in
02:47 66.2 °F 59.9 °F 29.87 in Calm   3.0 mph 80 % 0.00 in
02:52 65.8 °F 59.5 °F 29.87 in Calm   1.0 mph 80 % 0.00 in
02:57 65.8 °F 59.9 °F 29.87 in Calm     81 % 0.00 in
03:02 65.7 °F 59.7 °F 29.87 in Calm   1.0 mph 81 % 0.00 in
03:07 65.5 °F 59.5 °F 29.87 in Calm   1.0 mph 81 % 0.00 in
03:12 65.5 °F 59.9 °F 29.87 in Calm   1.0 mph 82 % 0.00 in
03:17 65.3 °F 59.7 °F 29.87 in Calm   1.0 mph 82 % 0.00 in
03:22 65.1 °F 59.5 °F 29.87 in Calm   1.0 mph 82 % 0.00 in
03:27 65.3 °F 60.1 °F 29.86 in Calm   1.0 mph 83 % 0.00 in
03:32 65.5 °F 59.9 °F 29.86 in NNW 1.0 mph 2.0 mph 82 % 0.00 in
03:37 65.5 °F 59.9 °F 29.86 in NW 2.0 mph 2.0 mph 82 % 0.00 in
03:42 65.5 °F 59.9 °F 29.86 in NNW 2.0 mph 3.0 mph 82 % 0.00 in
03:47 65.5 °F 59.9 °F 29.86 in NW 1.0 mph 3.0 mph 82 % 0.00 in
03:52 65.5 °F 59.9 °F 29.86 in NW 1.0 mph 3.0 mph 82 % 0.00 in
03:57 65.5 °F 59.9 °F 29.87 in Calm   3.0 mph 82 % 0.00 in
04:02 65.3 °F 59.7 °F 29.87 in Calm   2.0 mph 82 % 0.00 in
04:05 65.1 °F 59.5 °F 29.87 in Calm   2.0 mph 82 % 0.00 in
04:10 64.9 °F 59.7 °F 29.87 in Calm   2.0 mph 83 % 0.00 in
04:15 64.9 °F 59.7 °F 29.87 in Calm   2.0 mph 83 % 0.00 in
04:20 64.8 °F 59.9 °F 29.87 in Calm   2.0 mph 84 % 0.00 in
04:25 64.6 °F 59.7 °F 29.87 in Calm   1.0 mph 84 % 0.00 in
04:30 64.6 °F 59.9 °F 29.87 in Calm   1.0 mph 85 % 0.00 in
04:35 64.2 °F 59.5 °F 29.87 in Calm   1.0 mph 85 % 0.00 in
04:40 64.0 °F 59.4 °F 29.87 in Calm   1.0 mph 85 % 0.00 in
04:45 63.9 °F 59.5 °F 29.87 in North 1.0 mph 1.0 mph 86 % 0.00 in
04:50 63.9 °F 59.9 °F 29.87 in NW 1.0 mph 1.0 mph 87 % 0.00 in
04:55 64.0 °F 60.1 °F 29.86 in NNW 1.0 mph 2.0 mph 87 % 0.00 in
05:00 64.2 °F 59.9 °F 29.87 in Calm   2.0 mph 86 % 0.00 in
05:05 64.0 °F 59.7 °F 29.87 in Calm   2.0 mph 86 % 0.00 in
05:10 64.0 °F 60.1 °F 29.87 in Calm   2.0 mph 87 % 0.00 in
05:15 64.0 °F 60.1 °F 29.87 in Calm   2.0 mph 87 % 0.00 in
05:20 63.9 °F 59.9 °F 29.87 in Calm   2.0 mph 87 % 0.00 in
05:25 63.9 °F 59.9 °F 29.87 in Calm   1.0 mph 87 % 0.00 in
05:30 63.7 °F 59.7 °F 29.87 in Calm   1.0 mph 87 % 0.00 in
05:35 63.3 °F 59.4 °F 29.87 in Calm   1.0 mph 87 % 0.00 in
05:40 63.1 °F 59.5 °F 29.88 in Calm   1.0 mph 88 % 0.00 in
05:45 63.0 °F 59.4 °F 29.87 in Calm   1.0 mph 88 % 0.00 in
05:50 63.0 °F 59.7 °F 29.88 in Calm   1.0 mph 89 % 0.00 in
05:55 62.8 °F 59.5 °F 29.88 in Calm   1.0 mph 89 % 0.00 in
06:00 62.8 °F 59.5 °F 29.88 in Calm     89 % 0.00 in
06:05 62.4 °F 59.2 °F 29.88 in Calm     89 % 0.00 in
06:10 62.2 °F 59.0 °F 29.88 in Calm   1.0 mph 89 % 0.00 in
06:15 62.2 °F 59.2 °F 29.88 in Calm   1.0 mph 90 % 0.00 in
06:20 62.1 °F 59.2 °F 29.88 in Calm   1.0 mph 90 % 0.00 in
06:25 61.9 °F 59.0 °F 29.88 in Calm     90 % 0.00 in
06:30 61.5 °F 58.6 °F 29.88 in Calm   1.0 mph 90 % 0.00 in
06:35 61.3 °F 58.5 °F 29.89 in Calm   1.0 mph 90 % 0.00 in
06:40 61.3 °F 58.6 °F 29.89 in Calm   1.0 mph 91 % 0.00 in
06:44 61.3 °F 59.0 °F 29.89 in Calm   1.0 mph 92 % 0.00 in
06:49 61.7 °F 59.4 °F 29.89 in NW 1.0 mph 1.0 mph 92 % 0.00 in
06:54 61.9 °F 59.5 °F 29.89 in NW 1.0 mph 2.0 mph 92 % 0.00 in
06:59 62.1 °F 59.7 °F 29.89 in NW 1.0 mph 2.0 mph 92 % 0.00 in
07:04 62.2 °F 59.9 °F 29.89 in NNW 1.0 mph 2.0 mph 92 % 0.00 in
07:08 62.6 °F 59.9 °F 29.89 in NW 1.0 mph 3.0 mph 91 % 0.00 in
07:13 63.0 °F 60.3 °F 29.89 in NNW 2.0 mph 3.0 mph 91 % 0.00 in
07:18 63.3 °F 60.6 °F 29.89 in NW 4.0 mph 4.0 mph 91 % 0.00 in
07:23 63.9 °F 60.8 °F 29.89 in Calm   5.0 mph 90 % 0.00 in
07:28 64.2 °F 61.0 °F 29.90 in WNW 2.0 mph 6.0 mph 89 % 0.00 in
07:33 64.6 °F 61.0 °F 29.90 in NNW 1.0 mph 6.0 mph 88 % 0.00 in
07:38 64.9 °F 61.3 °F 29.90 in NW 2.0 mph 6.0 mph 88 % 0.00 in
07:40 64.9 °F 61.0 °F 29.90 in NW 4.0 mph 5.0 mph 87 % 0.00 in
07:45 65.5 °F 61.5 °F 29.90 in NW 1.0 mph 5.0 mph 87 % 0.00 in
07:50 65.8 °F 61.9 °F 29.90 in NW 2.0 mph 5.0 mph 87 % 0.00 in
07:55 66.2 °F 61.9 °F 29.91 in NW 1.0 mph 6.0 mph 86 % 0.00 in
08:00 66.7 °F 62.1 °F 29.91 in NW 1.0 mph 6.0 mph 85 % 0.00 in
08:05 67.3 °F 62.6 °F 29.91 in Calm   6.0 mph 85 % 0.00 in
08:10 67.8 °F 62.8 °F 29.91 in East 1.0 mph 6.0 mph 84 % 0.00 in
08:15 68.4 °F 63.0 °F 29.91 in NW 2.0 mph 6.0 mph 83 % 0.00 in
08:20 68.7 °F 63.0 °F 29.91 in NW 4.0 mph 6.0 mph 82 % 0.00 in
08:25 68.7 °F 63.0 °F 29.91 in NW 1.0 mph 6.0 mph 82 % 0.00 in
08:30 69.1 °F 63.3 °F 29.91 in NW 4.0 mph 7.0 mph 82 % 0.00 in
08:35 69.3 °F 63.1 °F 29.91 in WNW 4.0 mph 7.0 mph 81 % 0.00 in
08:40 69.4 °F 63.3 °F 29.92 in North 2.0 mph 7.0 mph 81 % 0.00 in
08:46 70.0 °F 63.9 °F 29.92 in NW 2.0 mph 7.0 mph 81 % 0.00 in
08:51 70.3 °F 63.9 °F 29.91 in East 2.0 mph 7.0 mph 80 % 0.00 in
08:56 70.9 °F 64.4 °F 29.91 in NNW 3.0 mph 5.0 mph 80 % 0.00 in
09:01 71.2 °F 64.8 °F 29.92 in NW 1.0 mph 6.0 mph 80 % 0.00 in
09:02 71.4 °F 64.2 °F 29.91 in North 2.0 mph 6.0 mph 78 % 0.00 in
09:08 71.4 °F 63.9 °F 29.91 in NW 4.0 mph 7.0 mph 77 % 0.00 in
09:13 71.8 °F 64.6 °F 29.91 in WNW 1.0 mph 7.0 mph 78 % 0.00 in
09:18 72.1 °F 64.9 °F 29.91 in WNW 1.0 mph 7.0 mph 78 % 0.00 in
09:23 72.3 °F 64.8 °F 29.92 in NW 4.0 mph 7.0 mph 77 % 0.00 in
09:28 72.1 °F 64.2 °F 29.91 in WNW 2.0 mph 6.0 mph 76 % 0.00 in
09:33 72.7 °F 64.8 °F 29.92 in NW 6.0 mph 7.0 mph 76 % 0.00 in
09:38 72.7 °F 64.8 °F 29.92 in NW 3.0 mph 7.0 mph 76 % 0.00 in
09:43 72.9 °F 64.8 °F 29.92 in NNW 1.0 mph 7.0 mph 76 % 0.00 in
09:48 73.0 °F 64.9 °F 29.92 in NNW 3.0 mph 7.0 mph 76 % 0.00 in
09:53 73.2 °F 64.8 °F 29.92 in NW 4.0 mph 7.0 mph 75 % 0.00 in
09:58 73.6 °F 64.8 °F 29.92 in NW 2.0 mph 7.0 mph 74 % 0.00 in
10:03 73.9 °F 65.1 °F 29.92 in NW 1.0 mph 7.0 mph 74 % 0.00 in
10:08 74.1 °F 65.3 °F 29.92 in NW 2.0 mph 7.0 mph 74 % 0.00 in
10:13 74.8 °F 65.7 °F 29.92 in NNW 3.0 mph 6.0 mph 73 % 0.00 in
10:18 75.0 °F 65.3 °F 29.92 in NW 3.0 mph 6.0 mph 72 % 0.00 in
10:23 75.4 °F 65.3 °F 29.92 in NW 6.0 mph 7.0 mph 71 % 0.00 in
10:28 75.6 °F 64.8 °F 29.92 in Calm   9.0 mph 69 % 0.00 in
10:33 75.7 °F 64.8 °F 29.92 in NW 4.0 mph 9.0 mph 69 % 0.00 in
10:38 75.9 °F 64.9 °F 29.92 in NW 3.0 mph 9.0 mph 69 % 0.00 in
10:43 76.3 °F 65.3 °F 29.92 in NNW 4.0 mph 7.0 mph 69 % 0.00 in
10:48 76.3 °F 64.6 °F 29.92 in NW 3.0 mph 7.0 mph 67 % 0.00 in
10:53 76.5 °F 64.8 °F 29.92 in North 4.0 mph 7.0 mph 67 % 0.00 in
10:58 76.6 °F 65.3 °F 29.93 in Calm   9.0 mph 68 % 0.00 in
11:03 77.4 °F 65.5 °F 29.92 in NW 2.0 mph 9.0 mph 67 % 0.00 in
11:08 77.7 °F 65.8 °F 29.92 in NNE 1.0 mph 9.0 mph 67 % 0.00 in
11:13 78.3 °F 66.4 °F 29.92 in North 2.0 mph 7.0 mph 67 % 0.00 in
11:18 78.8 °F 65.7 °F 29.92 in WSW 1.0 mph 6.0 mph 64 % 0.00 in
11:23 79.0 °F 66.2 °F 29.92 in NW 3.0 mph 6.0 mph 65 % 0.00 in
11:24 79.0 °F 65.8 °F 29.92 in North 4.0 mph 6.0 mph 64 % 0.00 in
11:29 78.4 °F 65.3 °F 29.92 in NW 1.0 mph 8.0 mph 64 % 0.00 in
11:34 79.3 °F 66.9 °F 29.92 in ENE 3.0 mph 8.0 mph 66 % 0.00 in
11:39 80.1 °F 66.4 °F 29.92 in WNW 3.0 mph 8.0 mph 63 % 0.00 in
11:44 78.8 °F 65.1 °F 29.92 in NW 1.0 mph 9.0 mph 63 % 0.00 in
11:49 79.3 °F 66.6 °F 29.92 in NNE 3.0 mph 9.0 mph 65 % 0.00 in
11:50 79.3 °F 66.0 °F 29.92 in NW 1.0 mph 9.0 mph 64 % 0.00 in
11:55 79.5 °F 65.3 °F 29.91 in NE 2.0 mph 7.0 mph 62 % 0.00 in
12:00 80.1 °F 66.4 °F 29.91 in NW 4.0 mph 8.0 mph 63 % 0.00 in
12:05 79.5 °F 64.9 °F 29.91 in NW 5.0 mph 8.0 mph 61 % 0.00 in
12:10 79.5 °F 66.2 °F 29.91 in North 1.0 mph 8.0 mph 64 % 0.00 in
12:15 80.2 °F 65.5 °F 29.91 in WNW 3.0 mph 8.0 mph 61 % 0.00 in
12:20 80.4 °F 64.8 °F 29.91 in WNW 3.0 mph 8.0 mph 59 % 0.00 in
12:25 79.9 °F 65.3 °F 29.91 in NW 1.0 mph 8.0 mph 61 % 0.00 in
12:30 80.4 °F 65.7 °F 29.90 in NW 2.0 mph 8.0 mph 61 % 0.00 in
12:35 81.0 °F 66.2 °F 29.90 in WNW 2.0 mph 8.0 mph 61 % 0.00 in
12:40 81.1 °F 65.5 °F 29.90 in WNW 3.0 mph 8.0 mph 59 % 0.00 in
12:45 81.5 °F 66.2 °F 29.90 in NNW 2.0 mph 9.0 mph 60 % 0.00 in
12:50 81.1 °F 65.5 °F 29.90 in WNW 4.0 mph 9.0 mph 59 % 0.00 in
12:55 81.7 °F 65.5 °F 29.90 in NW 2.0 mph 9.0 mph 58 % 0.00 in
13:00 81.5 °F 65.8 °F 29.89 in WNW 3.0 mph 9.0 mph 59 % 0.00 in
13:05 81.7 °F 66.9 °F 29.89 in NNE 5.0 mph 8.0 mph 61 % 0.00 in
13:10 81.9 °F 65.1 °F 29.89 in North 2.0 mph 8.0 mph 57 % 0.00 in
13:15 82.2 °F 65.5 °F 29.89 in NNW 6.0 mph 10.0 mph 57 % 0.00 in
13:20 82.6 °F 65.8 °F 29.89 in NNE 2.0 mph 10.0 mph 57 % 0.00 in
13:25 83.1 °F 65.8 °F 29.89 in NNW 4.0 mph 10.0 mph 56 % 0.00 in
13:30 83.5 °F 66.6 °F 29.89 in NW 7.0 mph 9.0 mph 57 % 0.00 in
13:35 82.8 °F 66.0 °F 29.89 in WNW 1.0 mph 9.0 mph 57 % 0.00 in
13:40 82.8 °F 66.0 °F 29.89 in WNW 5.0 mph 9.0 mph 57 % 0.00 in
13:45 82.9 °F 65.7 °F 29.89 in West 4.0 mph 8.0 mph 56 % 0.00 in
13:50 83.7 °F 66.7 °F 29.88 in North 1.0 mph 7.0 mph 57 % 0.00 in
13:55 83.5 °F 66.2 °F 29.88 in NNE 2.0 mph 9.0 mph 56 % 0.00 in
14:00 83.7 °F 66.7 °F 29.89 in NW 5.0 mph 9.0 mph 57 % 0.00 in
14:05 83.7 °F 65.8 °F 29.88 in West 2.0 mph 9.0 mph 55 % 0.00 in
14:10 84.0 °F 66.2 °F 29.88 in NW 3.0 mph 8.0 mph 55 % 0.00 in
14:15 84.2 °F 66.2 °F 29.88 in WSW 3.0 mph 9.0 mph 55 % 0.00 in
14:20 84.6 °F 66.0 °F 29.88 in NNW 7.0 mph 9.0 mph 54 % 0.00 in
14:25 84.9 °F 65.8 °F 29.88 in WNW 4.0 mph 9.0 mph 53 % 0.00 in
14:30 84.6 °F 65.5 °F 29.88 in NNW 1.0 mph 8.0 mph 53 % 0.00 in
14:35 84.7 °F 66.2 °F 29.88 in NNW 5.0 mph 8.0 mph 54 % 0.00 in
14:40 84.7 °F 65.1 °F 29.87 in Calm   8.0 mph 52 % 0.00 in
14:45 84.7 °F 64.6 °F 29.87 in North 1.0 mph 8.0 mph 51 % 0.00 in
14:50 85.1 °F 66.0 °F 29.87 in WNW 3.0 mph 8.0 mph 53 % 0.00 in
14:55 85.3 °F 65.7 °F 29.87 in Calm   10.0 mph 52 % 0.00 in
15:00 85.8 °F 64.9 °F 29.87 in North 4.0 mph 10.0 mph 50 % 0.00 in
15:05 85.8 °F 64.9 °F 29.87 in NW 3.0 mph 10.0 mph 50 % 0.00 in
15:10 85.6 °F 64.2 °F 29.87 in NW 3.0 mph 9.0 mph 49 % 0.00 in
15:15 85.8 °F 65.7 °F 29.87 in NNW 4.0 mph 9.0 mph 51 % 0.00 in
15:20 86.2 °F 64.2 °F 29.87 in NNW 2.0 mph 9.0 mph 48 % 0.00 in
15:25 85.8 °F 63.9 °F 29.86 in NW 4.0 mph 10.0 mph 48 % 0.00 in
15:31 85.8 °F 64.4 °F 29.86 in NW 3.0 mph 10.0 mph 49 % 0.00 in
15:36 86.4 °F 64.9 °F 29.86 in ESE 3.0 mph 10.0 mph 49 % 0.00 in
15:41 86.5 °F 65.1 °F 29.86 in North 6.0 mph 9.0 mph 49 % 0.00 in
15:46 86.9 °F 64.8 °F 29.86 in NNE 3.0 mph 9.0 mph 48 % 0.00 in
15:51 86.4 °F 63.7 °F 29.86 in NNW 3.0 mph 14.0 mph 47 % 0.00 in
15:56 86.5 °F 63.9 °F 29.86 in North 3.0 mph 14.0 mph 47 % 0.00 in
16:01 86.2 °F 64.2 °F 29.85 in NNW 5.0 mph 14.0 mph 48 % 0.00 in
16:06 86.5 °F 63.9 °F 29.85 in Calm   10.0 mph 47 % 0.00 in
16:11 86.7 °F 63.5 °F 29.85 in NW 4.0 mph 9.0 mph 46 % 0.00 in
16:16 86.7 °F 64.0 °F 29.85 in SE 2.0 mph 9.0 mph 47 % 0.00 in
16:21 86.9 °F 64.2 °F 29.85 in NNW 4.0 mph 8.0 mph 47 % 0.00 in
16:26 86.2 °F 64.8 °F 29.85 in ENE 1.0 mph 8.0 mph 49 % 0.00 in
16:31 86.0 °F 64.6 °F 29.84 in North 4.0 mph 7.0 mph 49 % 0.00 in
16:36 86.4 °F 64.9 °F 29.84 in NNW 4.0 mph 7.0 mph 49 % 0.00 in
16:37 86.5 °F 65.1 °F 29.84 in North 1.0 mph 7.0 mph 49 % 0.00 in
16:42 87.1 °F 66.2 °F 29.84 in North 4.0 mph 6.0 mph 50 % 0.00 in
16:47 86.9 °F 64.8 °F 29.84 in Calm   7.0 mph 48 % 0.00 in
16:52 86.7 °F 65.3 °F 29.84 in Calm   7.0 mph 49 % 0.00 in
16:57 87.1 °F 63.9 °F 29.84 in NNW 2.0 mph 7.0 mph 46 % 0.00 in
16:59 86.7 °F 64.0 °F 29.84 in North 5.0 mph 7.0 mph 47 % 0.00 in
17:04 86.4 °F 64.4 °F 29.84 in NNE 3.0 mph 8.0 mph 48 % 0.00 in
17:09 86.4 °F 63.7 °F 29.84 in North 1.0 mph 8.0 mph 47 % 0.00 in
17:14 86.7 °F 64.8 °F 29.84 in NW 4.0 mph 8.0 mph 48 % 0.00 in
17:19 86.7 °F 64.0 °F 29.84 in NNE 3.0 mph 8.0 mph 47 % 0.00 in
17:24 86.4 °F 64.4 °F 29.83 in North 2.0 mph 8.0 mph 48 % 0.00 in
17:29 86.4 °F 64.4 °F 29.83 in Calm   8.0 mph 48 % 0.00 in
17:34 85.8 °F 63.9 °F 29.83 in NNW 2.0 mph 9.0 mph 48 % 0.00 in
17:39 85.8 °F 64.9 °F 29.83 in ENE 2.0 mph 10.0 mph 50 % 0.00 in
17:45 85.8 °F 64.4 °F 29.83 in NNW 3.0 mph 10.0 mph 49 % 0.00 in
17:50 85.8 °F 63.9 °F 29.83 in North 1.0 mph 10.0 mph 48 % 0.00 in
17:55 85.6 °F 63.7 °F 29.83 in NNE 2.0 mph 9.0 mph 48 % 0.00 in
18:00 86.0 °F 64.0 °F 29.83 in Calm   9.0 mph 48 % 0.00 in
18:05 86.2 °F 64.2 °F 29.83 in North 1.0 mph 9.0 mph 48 % 0.00 in
18:10 86.4 °F 64.4 °F 29.83 in ENE 1.0 mph 6.0 mph 48 % 0.00 in
18:15 86.0 °F 64.6 °F 29.83 in NW 3.0 mph 6.0 mph 49 % 0.00 in
18:20 85.5 °F 64.0 °F 29.83 in North 3.0 mph 6.0 mph 49 % 0.00 in
18:25 84.9 °F 64.2 °F 29.83 in ENE 2.0 mph 7.0 mph 50 % 0.00 in
18:30 84.6 °F 64.4 °F 29.83 in North 6.0 mph 7.0 mph 51 % 0.00 in
18:35 84.6 °F 64.4 °F 29.83 in Calm   7.0 mph 51 % 0.00 in
18:40 84.2 °F 64.0 °F 29.83 in WNW 1.0 mph 7.0 mph 51 % 0.00 in
18:45 84.0 °F 63.9 °F 29.83 in ESE 1.0 mph 8.0 mph 51 % 0.00 in
18:50 83.5 °F 64.0 °F 29.83 in NW 1.0 mph 8.0 mph 52 % 0.00 in
18:55 83.1 °F 63.7 °F 29.83 in SE 5.0 mph 8.0 mph 52 % 0.00 in
19:00 82.9 °F 63.5 °F 29.83 in NNW 2.0 mph 8.0 mph 52 % 0.00 in
19:05 82.9 °F 63.5 °F 29.83 in ENE 1.0 mph 8.0 mph 52 % 0.00 in
19:10 82.9 °F 64.0 °F 29.83 in NNE 3.0 mph 8.0 mph 53 % 0.00 in
19:15 82.8 °F 63.9 °F 29.83 in NNW 4.0 mph 8.0 mph 53 % 0.00 in
19:20 82.2 °F 63.9 °F 29.83 in Calm   7.0 mph 54 % 0.00 in
19:25 81.7 °F 63.5 °F 29.83 in WNW 1.0 mph 10.0 mph 54 % 0.00 in
19:30 81.3 °F 63.7 °F 29.83 in East 3.0 mph 10.0 mph 55 % 0.00 in
19:35 81.0 °F 63.9 °F 29.84 in NE 4.0 mph 10.0 mph 56 % 0.00 in
19:40 80.8 °F 64.0 °F 29.84 in NE 2.0 mph 7.0 mph 57 % 0.00 in
19:45 80.6 °F 64.4 °F 29.84 in ENE 4.0 mph 7.0 mph 58 % 0.00 in
19:50 80.2 °F 64.6 °F 29.84 in ENE 3.0 mph 7.0 mph 59 % 0.00 in
19:55 80.1 °F 64.4 °F 29.84 in NNE 1.0 mph 7.0 mph 59 % 0.00 in
20:00 79.9 °F 64.2 °F 29.84 in NW 2.0 mph 6.0 mph 59 % 0.00 in
20:05 79.5 °F 64.4 °F 29.84 in North 2.0 mph 6.0 mph 60 % 0.00 in
20:10 79.3 °F 64.2 °F 29.84 in East 2.0 mph 6.0 mph 60 % 0.00 in
20:15 79.0 °F 63.9 °F 29.84 in Calm   6.0 mph 60 % 0.00 in
20:16 79.0 °F 64.4 °F 29.84 in ESE 2.0 mph 6.0 mph 61 % 0.00 in
20:21 78.6 °F 64.0 °F 29.84 in Calm   5.0 mph 61 % 0.00 in
20:26 78.4 °F 63.9 °F 29.84 in SSE 1.0 mph 5.0 mph 61 % 0.00 in
20:31 78.1 °F 64.0 °F 29.84 in Calm   5.0 mph 62 % 0.00 in
20:36 78.1 °F 64.0 °F 29.84 in East 1.0 mph 4.0 mph 62 % 0.00 in
20:41 77.7 °F 64.0 °F 29.85 in Calm   4.0 mph 63 % 0.00 in
20:46 77.4 °F 63.9 °F 29.85 in East 1.0 mph 4.0 mph 63 % 0.00 in
20:51 77.2 °F 64.0 °F 29.85 in Calm   2.0 mph 64 % 0.00 in
20:56 76.8 °F 63.7 °F 29.85 in Calm   2.0 mph 64 % 0.00 in
21:01 76.5 °F 63.9 °F 29.85 in Calm   2.0 mph 65 % 0.00 in
21:06 76.3 °F 64.0 °F 29.85 in Calm   2.0 mph 66 % 0.00 in
21:11 75.9 °F 63.7 °F 29.85 in Calm   2.0 mph 66 % 0.00 in
21:16 75.6 °F 63.9 °F 29.85 in Calm   2.0 mph 67 % 0.00 in
21:21 75.4 °F 64.0 °F 29.85 in Calm   1.0 mph 68 % 0.00 in
21:26 74.8 °F 64.0 °F 29.85 in Calm   1.0 mph 69 % 0.00 in
21:31 74.7 °F 63.9 °F 29.85 in Calm   1.0 mph 69 % 0.00 in
21:36 74.5 °F 64.0 °F 29.85 in Calm   1.0 mph 70 % 0.00 in
21:41 74.3 °F 63.9 °F 29.85 in ENE 1.0 mph 1.0 mph 70 % 0.00 in
21:46 74.3 °F 64.2 °F 29.85 in Calm   2.0 mph 71 % 0.00 in
21:51 74.5 °F 64.4 °F 29.85 in Calm   2.0 mph 71 % 0.00 in
21:56 74.1 °F 64.0 °F 29.85 in Calm   2.0 mph 71 % 0.00 in
22:01 74.1 °F 64.0 °F 29.85 in Calm   1.0 mph 71 % 0.00 in
22:04 73.9 °F 63.9 °F 29.85 in Calm   1.0 mph 71 % 0.00 in
22:09 73.9 °F 63.9 °F 29.85 in Calm   1.0 mph 71 % 0.00 in
22:14 73.8 °F 64.2 °F 29.85 in Calm   1.0 mph 72 % 0.00 in
22:19 73.8 °F 64.2 °F 29.86 in Calm   1.0 mph 72 % 0.00 in
22:24 73.8 °F 64.2 °F 29.86 in Calm   1.0 mph 72 % 0.00 in
22:29 73.6 °F 64.4 °F 29.86 in Calm   1.0 mph 73 % 0.00 in
22:34 73.4 °F 64.2 °F 29.86 in Calm   1.0 mph 73 % 0.00 in
22:39 73.4 °F 64.2 °F 29.86 in Calm   1.0 mph 73 % 0.00 in
22:44 73.2 °F 64.4 °F 29.86 in Calm   1.0 mph 74 % 0.00 in
22:49 73.2 °F 64.4 °F 29.86 in Calm   2.0 mph 74 % 0.00 in
22:54 73.0 °F 64.2 °F 29.86 in Calm   2.0 mph 74 % 0.00 in
22:59 72.9 °F 64.4 °F 29.87 in Calm   2.0 mph 75 % 0.00 in
23:04 72.9 °F 64.4 °F 29.87 in ESE 1.0 mph 2.0 mph 75 % 0.00 in
23:09 72.9 °F 64.4 °F 29.87 in Calm   2.0 mph 75 % 0.00 in
23:14 72.7 °F 64.2 °F 29.88 in Calm   2.0 mph 75 % 0.00 in
23:19 72.7 °F 64.8 °F 29.88 in Calm   1.0 mph 76 % 0.00 in
23:24 72.5 °F 64.6 °F 29.88 in Calm   2.0 mph 76 % 0.00 in
23:29 72.3 °F 64.4 °F 29.88 in Calm   2.0 mph 76 % 0.00 in
23:34 72.3 °F 64.4 °F 29.89 in Calm   2.0 mph 76 % 0.00 in
23:39 72.3 °F 64.8 °F 29.89 in SE 2.0 mph 2.0 mph 77 % 0.00 in
23:44 72.3 °F 64.8 °F 29.89 in Calm   2.0 mph 77 % 0.00 in
23:49 72.3 °F 64.8 °F 29.90 in Calm   3.0 mph 77 % 0.00 in
23:54 72.3 °F 64.8 °F 29.90 in SSW 2.0 mph 3.0 mph 77 % 0.00 in
23:59 72.1 °F 64.9 °F 29.91 in SSW 1.0 mph 5.0 mph 78 % 0.00 in
Spring, Texas: Villages of Bridgestone
Compliments of Weather Underground - 3 mb

Script developed by  Jim McMurry - jmcmurry@mwt.net Adapted for the template by  Wim van der Kuil - Leuven-Template.eu

You find our weather info also at:

UK Metoffice

WeatherCloud

Weather Underground

Mid-South Weather Network

AWEKAS

Citizen Weather Observer Program (CWOP)

HAMweather, WeatherForYou, PWS Weather

Equipment we use:

Weather-station
Davis Vantage Vue

Weather-program
Meteohub

Weather-server
Debian 7.9 x86 (Guest)

Provider
DreamHost

Davis Vantage Vue

Meteohub

Debian 7.9 x86 (Guest)

DreamHost